Waarnemingen

Advertentie
Mijn weer
Milano/Malpensa, Italië (16066): temperatuur & dauwpunt: 19.06.2018 15:00:00 - 25.06.2018 15:00:00 (CEST)Milano/Malpensa, Italië (16066): windsnelheid: 19.06.2018 15:00:00 - 25.06.2018 15:00:00 (CEST)Milano/Malpensa, Italië (16066): windrichting: 19.06.2018 15:00:00 - 25.06.2018 15:00:00 (CEST)Milano/Malpensa, Italië (16066): luchtdruk: 19.06.2018 15:00:00 - 25.06.2018 15:00:00 (CEST)Milano/Malpensa, Italië (16066): zicht: 19.06.2018 15:00:00 - 25.06.2018 15:00:00 (CEST)Milano/Malpensa, Italië (16066): neerslag: 19.06.2018 15:00:00 - 25.06.2018 15:00:00 (CEST)
Datum & Tijd tt [°C] td [°C] ff [km/u] ff [kn] dd ppp [hPa] vv [km] rr [mm]
25.06.2018 15:00:00 26,0 14,0 11 6 Z - 10 -
25.06.2018 14:00:00 25,1 12,4 9 5 - 1016,8 10 -
25.06.2018 13:00:00 24,0 13,0 11 6 - - 10 -
25.06.2018 12:00:00 23,0 13,0 11 6 ZZO - 10 -
25.06.2018 11:00:00 22,5 13,2 8 4 - 1017,0 10 0,0
25.06.2018 10:00:00 21,0 13,0 9 5 ZZO - 10 -
25.06.2018 09:00:00 20,0 13,0 9 5 - - 10 -
25.06.2018 08:00:00 19,1 13,0 4 2 NNO 1016,3 10 -
25.06.2018 07:00:00 16,0 13,0 9 5 NNO - 10 -
25.06.2018 06:00:00 18,0 12,0 4 2 - - 10 -
25.06.2018 05:00:00 17,8 12,2 13 7 O 1015,4 10 0,0
25.06.2018 04:00:00 18,0 13,0 11 6 ONO - 10 -
25.06.2018 03:00:00 18,0 15,0 8 4 N - 10 -
25.06.2018 02:00:00 18,0 14,5 5 3 NNO 1015,8 10 -
25.06.2018 01:00:00 18,0 14,0 5 3 NNO - 10 -
25.06.2018 00:00:00 22,0 13,0 9 5 W - 10 -
24.06.2018 23:00:00 22,2 12,9 9 5 W 1016,4 10 0,0
24.06.2018 22:00:00 23,0 13,0 9 5 W - 10 -
24.06.2018 21:00:00 23,0 13,0 11 6 W - 10 -
24.06.2018 20:00:00 23,5 13,2 13 7 W 1015,8 10 -
24.06.2018 19:00:00 24,0 12,0 11 6 ZW - 10 -
24.06.2018 18:00:00 25,0 11,0 11 6 ZW - 10 -
24.06.2018 17:00:00 25,2 9,3 9 5 - 1016,1 10 0,0
24.06.2018 16:00:00 25,0 10,0 5 3 - - 10 -
24.06.2018 15:00:00 25,0 10,0 8 4 ZZW - 10 -
24.06.2018 14:00:00 24,2 9,7 9 5 Z 1017,6 10 -
24.06.2018 13:00:00 24,0 9,0 9 5 Z - 10 -
24.06.2018 12:00:00 23,0 10,0 8 4 - - 10 -
24.06.2018 11:00:00 21,8 10,2 9 5 OZO 1018,7 10 0,0
24.06.2018 10:00:00 21,0 12,0 5 3 O - 10 -
24.06.2018 09:00:00 19,0 13,0 5 3 NNO - 10 -
24.06.2018 08:00:00 18,7 11,3 4 2 - 1019,1 10 -
24.06.2018 07:00:00 16,0 11,0 8 4 NNO - 10 -
24.06.2018 06:00:00 14,0 10,0 9 5 NNO - 10 -
24.06.2018 05:00:00 16,3 10,2 5 3 NO 1018,5 10 0,0
24.06.2018 04:00:00 16,0 11,0 9 5 ONO - 10 -
24.06.2018 03:00:00 15,0 12,0 9 5 NNO - 10 -
24.06.2018 02:00:00 14,5 11,7 8 4 N 1019,1 10 -
24.06.2018 01:00:00 17,0 12,0 5 3 NO - 10 -
24.06.2018 00:00:00 17,0 12,0 4 2 - - 10 -
23.06.2018 23:00:00 17,8 12,0 5 3 ONO 1018,5 10 0,0
23.06.2018 22:00:00 22,0 11,0 15 8 WZW - 10 -
23.06.2018 21:00:00 24,0 10,0 11 6 WZW - 10 -
23.06.2018 20:00:00 24,4 10,0 11 6 W 1017,1 10 -
23.06.2018 19:00:00 25,0 10,0 13 7 WZW - 10 -
23.06.2018 18:00:00 25,0 11,0 16 9 WZW - 10 -
23.06.2018 17:00:00 25,6 10,5 13 7 ZZW 1017,9 10 0,0
23.06.2018 16:00:00 25,0 11,0 13 7 Z - 10 -
23.06.2018 15:00:00 25,0 10,0 9 5 ZZO - 10 -
23.06.2018 14:00:00 24,8 10,8 9 5 Z 1019,9 10 -
23.06.2018 13:00:00 23,0 10,0 8 4 Z - 10 -
23.06.2018 12:00:00 23,0 10,0 9 5 ZZO - 10 -
23.06.2018 11:00:00 22,5 11,8 11 6 ZO 1021,4 10 0,0
23.06.2018 10:00:00 21,0 13,0 15 8 ZO - 10 -
23.06.2018 09:00:00 20,0 12,0 13 7 O - 10 -
23.06.2018 08:00:00 19,4 13,8 9 5 NNO 1021,7 10 -
23.06.2018 07:00:00 16,0 14,0 9 5 NNO - 10 -
23.06.2018 06:00:00 14,0 13,0 9 5 NNO - 10 -
23.06.2018 05:00:00 14,8 12,7 9 5 NNO 1020,7 10 0,0
23.06.2018 04:00:00 15,0 13,0 9 5 NNO - 10 -
23.06.2018 03:00:00 17,0 13,0 8 4 ONO - 10 -
23.06.2018 02:00:00 18,7 13,6 15 8 OZO 1020,4 10 -
23.06.2018 01:00:00 19,0 14,0 9 5 O - 10 -
23.06.2018 00:00:00 20,0 14,0 21 11 OZO - 10 -
22.06.2018 23:00:00 21,0 14,7 18 10 OZO 1017,7 10 0,0
22.06.2018 22:00:00 22,0 16,0 15 8 O - 10 -
22.06.2018 21:00:00 25,0 17,0 18 10 O - 10 -
22.06.2018 20:00:00 26,9 16,8 15 8 OZO 1014,1 10 -
22.06.2018 19:00:00 29,0 16,0 11 6 OZO - 10 -
22.06.2018 18:00:00 30,0 -2,0 24 13 ONO - 10 -
22.06.2018 17:00:00 30,4 0,3 26 14 ONO 1012,5 10 0,0
22.06.2018 16:00:00 30,0 1,0 24 13 NO - 10 -
22.06.2018 15:00:00 30,0 1,0 28 15 ONO - 10 -
22.06.2018 14:00:00 30,0 0,0 26 14 ONO 1012,6 10 -
22.06.2018 13:00:00 30,0 4,0 24 13 NO - 10 -
22.06.2018 12:00:00 29,0 3,0 24 13 NO - 10 -
22.06.2018 11:00:00 28,8 6,2 15 8 NO 1012,1 10 0,0
22.06.2018 10:00:00 28,0 10,0 11 6 NNO - 10 -
22.06.2018 09:00:00 27,0 17,0 2 1 - - 10 -
22.06.2018 08:00:00 24,0 17,2 4 2 - 1011,4 10 -
22.06.2018 07:00:00 20,0 17,0 5 3 NO - 10 -
22.06.2018 06:00:00 20,0 17,0 4 2 NO - 10 -
22.06.2018 05:00:00 21,7 16,8 5 3 ZZW 1011,1 10 0,0
22.06.2018 04:00:00 23,0 16,0 8 4 ZZW - 10 -
22.06.2018 03:00:00 21,0 16,0 4 2 - - 10 -
22.06.2018 02:00:00 22,4 15,9 4 2 - 1012,4 10 -
22.06.2018 01:00:00 23,0 16,0 5 3 Z - 10 -
22.06.2018 00:00:00 24,0 15,0 11 6 ZW - 10 -
21.06.2018 23:00:00 24,5 16,0 11 6 ZZW 1013,1 10 0,0
21.06.2018 22:00:00 26,0 17,0 9 5 ZZW - 10 -
21.06.2018 21:00:00 27,0 19,0 8 4 Z - 10 -
21.06.2018 20:00:00 28,9 17,7 11 6 WZW 1012,1 10 -
21.06.2018 19:00:00 30,0 17,0 15 8 ZW - 10 -
21.06.2018 18:00:00 30,0 15,0 16 9 ZW - 10 -
21.06.2018 17:00:00 29,9 17,0 15 8 ZW 1013,3 10 0,0
21.06.2018 16:00:00 30,0 15,0 15 8 WZW - 10 -
21.06.2018 15:00:00 30,0 16,0 13 7 ZZW - 10 -
21.06.2018 14:00:00 29,4 15,8 9 5 W 1015,6 12 -
21.06.2018 13:00:00 29,0 17,0 8 4 W - 10 -
21.06.2018 12:00:00 28,0 17,0 8 4 ZW - 10 -
21.06.2018 11:00:00 28,0 16,0 5 3 ZW 1017,0 10 0,0
21.06.2018 10:00:00 28,0 16,0 2 1 - - 10 -
21.06.2018 09:00:00 24,0 18,0 8 4 NNO - 10 -
21.06.2018 08:00:00 22,9 18,3 9 5 N 1017,8 10 -
21.06.2018 07:00:00 20,0 18,0 9 5 N - 10 -
21.06.2018 06:00:00 19,0 17,0 16 9 N - 10 -
21.06.2018 05:00:00 19,7 17,7 11 6 N 1017,9 10 0,0
21.06.2018 04:00:00 20,0 18,0 13 7 N - 10 -
21.06.2018 03:00:00 21,0 18,0 9 5 N - 10 -
21.06.2018 02:00:00 21,3 18,7 11 6 N 1019,4 10 -
21.06.2018 01:00:00 24,0 18,0 11 6 NNW - 10 -
21.06.2018 00:00:00 25,0 17,0 9 5 OZO - 10 -
20.06.2018 23:00:00 25,5 16,4 5 3 ZO 1019,6 10 0,0
20.06.2018 22:00:00 27,0 15,0 8 4 WNW - 10 -
20.06.2018 21:00:00 28,0 14,0 9 5 W - 10 -
20.06.2018 20:00:00 28,8 14,2 9 5 W 1018,4 10 -
20.06.2018 19:00:00 29,0 15,0 13 7 WZW - 10 -
20.06.2018 18:00:00 30,0 14,0 13 7 ZW - 10 -
20.06.2018 17:00:00 30,1 13,6 13 7 ZW 1019,4 10 0,0
20.06.2018 16:00:00 30,0 14,0 9 5 ZZW - 10 -
20.06.2018 15:00:00 30,0 13,0 9 5 Z - 10 -
20.06.2018 14:00:00 29,6 14,5 13 7 ZZW 1020,9 10 -
20.06.2018 13:00:00 29,0 15,0 9 5 ZZW - 10 -
20.06.2018 12:00:00 29,0 14,0 5 3 Z - 10 -
20.06.2018 11:00:00 27,6 15,7 4 2 - 1021,8 10 0,0
20.06.2018 10:00:00 26,0 18,0 4 2 - - 10 -
20.06.2018 09:00:00 25,0 18,0 8 4 NNO - 10 -
20.06.2018 08:00:00 23,0 17,9 9 5 N 1021,6 10 -
20.06.2018 07:00:00 22,0 18,0 11 6 N - 10 -
20.06.2018 06:00:00 22,0 18,0 5 3 NO - 10 -
20.06.2018 05:00:00 22,4 18,0 11 6 N 1020,9 10 0,0
20.06.2018 04:00:00 22,0 17,0 9 5 N - 10 -
20.06.2018 03:00:00 22,0 17,0 11 6 N - 10 -
20.06.2018 02:00:00 21,2 17,1 9 5 N 1021,5 10 -
20.06.2018 01:00:00 23,0 17,0 2 1 - - 10 -
20.06.2018 00:00:00 22,0 17,0 4 2 NNO - 10 -
19.06.2018 23:00:00 23,3 17,3 2 1 - 1020,0 10 0,0
19.06.2018 22:00:00 26,0 17,0 4 2 ZZO - 10 -
19.06.2018 21:00:00 28,0 16,0 5 3 ZZW - 10 -
19.06.2018 20:00:00 28,4 15,7 9 5 WZW 1018,6 10 -
19.06.2018 19:00:00 29,0 16,0 11 6 ZW - 10 -
19.06.2018 18:00:00 30,0 17,0 11 6 WZW - 10 -
19.06.2018 17:00:00 29,4 14,3 11 6 ZZW 1019,0 10 0,0
19.06.2018 16:00:00 30,0 17,0 9 5 ZZW - 10 -
19.06.2018 15:00:00 29,0 15,0 9 5 ZW - 10 -

tt = temperatuur
td = dauwpunt
ff = windsnelheid
dd = windrichting
ppp = luchtdruk
vv = zicht
rr = neerslag

Weerstations in de omgeving